GEOSCAN 3 (RS92S3)

Last updated on Sun Jun 21 2026 00:03:20 GMT+0000 (Coordinated Universal Time)

1 64893U 25155T 26171.38624047 .00015526 00000+0 45188-3 0 9996 2 64893 97.4541 141.3003 0007202 150.8779 209.2867 15.35486190 81344
UTC large
Height (km)
Speed (km/s)
/
Latitude / Longitude
Inclination (degrees)
Orbital Period (minutes)
Azimuth
Elevation
Range (km)
Doppler Factor

Next 0 passes for location: London (51.5072 / 0.1276)

No passes found over London.
GEOSCAN 3 (RS92S3)